Regional Weather Roundup
Issued by NWS

Home | Current Version | Previous Version | Graphics & Text | Print | Product List | Glossary On
Versions: 1 2 3 4 5 6 7 8 9 10 11 12 13 14 15 16 17 18 19 20 21 22 23 24 25 26 27 28 29 30 31 32 33 34 35 36 37 38 39 40 41 42 43 44 45 46 47 48 49 50
000
ASUS45 KCYS 270910
RWRWY

WYOMING REGIONAL WEATHER ROUNDUP
NATIONAL WEATHER SERVICE CHEYENNE WY
300 AM MDT MON APR 27 2015

NOTE:  "FAIR" INDICATES FEW OR NO CLOUDS BELOW 12,000 FEET
WITH NO SIGNIFICANT WEATHER AND/OR OBSTRUCTIONS TO VISIBILITY.

WYZ001-271000-
YELLOWSTONE NATIONAL PARK

CITY           SKY/WX    TMP DP  RH WIND       PRES   REMARKS
LK YELLOWSTONE   N/A     29  26  89 CALM      30.23S
W YELLOWSTONE  NOT AVBL

$$
WYZ002>013-054>058-071-098>099-271000-
NORTHERN WYOMING

CITY           SKY/WX    TMP DP  RH WIND       PRES   REMARKS
JACKSON        CLOUDY    37  34  87 NE7       30.18S WCI  32
CODY           CLOUDY    34  34 100 NE5       30.23F WCI  30
GREYBULL       LGT RAIN  38  34  85 W9        30.23R WCI  31
WORLAND        CLOUDY    38  33  82 N7        30.24R WCI  33
SHERIDAN       CLOUDY    36  33  89 NW3       30.26S
BUFFALO        LGT SNOW  34  32  92 N10       30.23S FOG     WCI  26
GILLETTE       CLOUDY    34  33  96 N10       30.22S WCI  26
HULETT         MIX PCPN  34  34 100 NW3       30.23S
NEWCASTLE      LGT RAIN  37  37 100 NW7       30.20R WCI  32

$$
WYZ014>020-022>026-101>103-271000-
CENTRAL WYOMING

CITY           SKY/WX    TMP DP  RH WIND       PRES   REMARKS
BIG PINEY      CLOUDY    38  31  76 N3        30.15S
PINEDALE       DRIZZLE   36  34  93 W5        30.16S WCI  32
DUBOIS         LGT SNOW  32  32 100 E7        30.17R WCI  26
LANDER         LGT RAIN  36  33  89 N5        30.19R WCI  32
RIVERTON       LGT RAIN  36  32  85 N8        30.20R WCI  30
CASPER         LGT SNOW  33  31  92 NE6       30.19S FOG     WCI  28
DOUGLAS        CLOUDY    39  38  96 W7        30.17S WCI  34

$$
WYZ021-027>030-104>119-271000-
SOUTHERN WYOMING

CITY           SKY/WX    TMP DP  RH WIND       PRES   REMARKS
EVANSTON       CLOUDY    34  30  85 W5        30.17S WCI  30
KEMMERER       DRIZZLE   34  34 100 NW3       30.17S
FORT BRIDGER   FOG       34  34 100 W9        30.19S VSB 1/2 WCI  26
ROCK SPRINGS   FLURRIES  35  33  92 N7        30.15R WCI  29
DIXON          CLOUDY    37  35  92 CALM      30.09R
RAWLINS        CLOUDY    36  32  85 NE13      30.11S WCI  27
SARATOGA       CLOUDY    34  34 100 W3        30.10R
LARAMIE        MOCLDY    34  32  92 S5        30.11S WCI  30
CHEYENNE       LGT SNOW  33  31  92 W3        30.13S FOG
TORRINGTON     CLOUDY    42  39  89 NE3       30.15S
PINE BLUFFS    CLOUDY    37  36  93 CALM      30.15R

$$



USA.gov is the U.S. government's official web portal to all federal, state and local government web resources and services.